Regional Weather Roundup
Issued by NWS Sterling, VA

Home | Current Version | Previous Version | Text Only | Print | Product List | Glossary On
Versions: 1 2 3 4 5 6 7 8 9 10 11 12 13 14 15 16 17 18 19 20 21 22 23 24 25 26 27 28 29 30 31 32 33 34 35 36 37 38 39 40 41 42 43 44 45 46 47 48 49 50
000
ASUS41 KLWX 290210
RWRLWX

REGIONAL WEATHER ROUNDUP
NATIONAL WEATHER SERVICE BALTIMORE MD/WASHINGTON DC
900 PM EST FRI NOV 28 2014

Note: "FAIR" indicates few or no clouds below 12,000 feet
with no significant weather and/or obstructions to visibility.
 TC=TEMPERATURE CELSIUS

 * =Non NWS site. Station does not report precipitation (e.g. rain,
    snow, etc.), thunder, or fog.

DCZ001-MDZ009-015-VAZ040>042-051-053>054-290300-
WASHINGTON METRO

CITY           SKY/WX    TMP DP  RH WIND       PRES   REMARKS
WASHINGTON NAT PTCLDY    36  17  46 NW5       30.31S
DULLES         CLEAR     24  19  81 CALM      30.29F
ANDREWS AFB    CLEAR     31  18  57 E1        30.29S
FT BELVOIR     CLEAR     25  22  86 SE2       30.30F
QUANTICO       CLEAR     30  22  72 NW3       30.31F
COLLEGE PARK*  CLEAR     30  23  74 CALM      30.30F
LEESBURG*      CLEAR     30  23  74 CALM      30.29F
MANASSAS*      CLEAR     25  21  86 CALM      30.30F
GAITHERSBURG*  CLEAR     27  18  69 CALM      30.31F

$$

MDZ006>007-011-014-290300-
BALTIMORE METRO

CITY           SKY/WX    TMP DP  RH WIND       PRES   REMARKS
BWI AIRPORT    PTCLDY    27  20  75 CALM      30.29S
MD SCIENCE CTR   N/A     33  16  49 MISG      30.31R
MARTIN STATE   PTCLDY    30  21  69 CALM      30.32R
ANNAPOLIS      CLEAR     31  18  58 CALM      30.31R
FORT MEADE*    CLEAR     25  21  86 CALM      30.32F

$$

MDZ012-015-019>023-290300-
MARYLAND EASTERN SHORE

CITY           SKY/WX    TMP DP  RH WIND       PRES   REMARKS
OCEAN CITY     CLEAR     26  21  81 CALM      30.31R
SALISBURY      CLEAR     28  22  78 CALM      30.31R
BAY BRIDGE AP*   N/A     34  19  55 NW3       30.31S
CAMBRIDGE*     CLEAR     30  23  74 CALM      30.31R

$$

MDZ017>025-290300-
SOUTHERN MARYLAND

CITY           SKY/WX    TMP DP  RH WIND       PRES   REMARKS
PATUXENT RIVER PTCLDY    26  20  77 CALM      30.31S
ST INIGOES     CLEAR     27  20  75 CALM      30.31S
LEONARDTOWN*   CLEAR     28  21  74 CALM      30.33R

$$

MDZ003>005-290300-
NORTH CENTRAL MARYLAND

CITY           SKY/WX    TMP DP  RH WIND       PRES   REMARKS
FREDERICK*     CLEAR     32  18  55 CALM      30.31S
HAGERSTOWN APT PTCLDY    29  14  53 S3        30.26S
WESTMINSTER*   PTCLDY    27  16  63 NW3       30.25S

$$

MDZ501>502-290300-
WESTERN MARYLAND

CITY           SKY/WX    TMP DP  RH WIND       PRES   REMARKS
OAKLAND*       PTCLDY    19  19 100 SW6       30.11F
CUMBERLAND*    PTCLDY    30  18  59 CALM      30.29F

$$

VAZ025>031-290300-
SHENANDOAH VALLEY

CITY           SKY/WX    TMP DP  RH WIND       PRES   REMARKS
WINCHESTER*    PTCLDY    27  18  69 CALM      30.25S
FRONT ROYAL*   FAIR      28  21  74 CALM      30.24F
LURAY*         MOCLDY    28  23  80 CALM      30.24F
NEW MARKET*    MOCLDY    23  19  87 CALM      30.23F
STAUNTON*      CLEAR     28  18  66 SE3       30.24F
WAYNESBORO*    FAIR      29  16  58 SW5       30.22S

$$

WVZ021-048>050-054>055-290300-
EASTERN WEST VIRGINIA PANHANDLE

CITY           SKY/WX    TMP DP  RH WIND       PRES   REMARKS
MARTINSBURG    CLEAR     26  16  65 CALM      30.26F
PETERSBURG*    NOT AVBL

$$

VAZ036>039-050-290300-
CENTRAL FOOTHILLS

CITY           SKY/WX    TMP DP  RH WIND       PRES   REMARKS
CHARLOTTESVILL CLEAR     31  18  58 SE3       30.26F
CULPEPER*      CLEAR     25  21  86 CALM      30.28S
ORANGE*        CLEAR     28  23  80 CALM      30.29S
GORDONSVILLE*  FAIR      26  21  80 CALM      30.28S
WARRENTON*     FAIR      23  23 100 CALM      30.28S

$$

VAZ055>057-290300-
NORTH AND CENTRAL PIEDMONT

CITY           SKY/WX    TMP DP  RH WIND       PRES   REMARKS
FREDERICKSBRG* FAIR      27  22  80 CALM      30.30F
STAFFORD*      CLEAR     25  21  85 CALM      30.34F

$$

NCZ024-NYZ072-PAZ021-071-VAZ022-071-290300-
OTHER REGIONAL OBSERVATIONS

CITY           SKY/WX    TMP DP  RH WIND       PRES   REMARKS
NEW YORK CITY  CLEAR     30  12  47 NW6       30.28R
PHILADELPHIA   MOCLDY    32  17  54 W7        30.29S
PITTSBURGH     MOCLDY    26  18  71 S6        30.19F
ROANOKE        CLEAR     30  18  60 NW5       30.26F
RICHMOND       CLEAR     30  22  72 CALM      30.30S
RALEIGH        CLEAR     31  24  75 CALM      30.31F

$$

ANZ530>537-290300-
MARINE OBSERVATIONS

STATION/POSITION TIME  TEMP    WIND        PRES
                       AIR SEA DIR/SP/G
                 (UTC) (F)     (DEG/KT/KT) (MB)
THOMAS PT LIGHT  0200   35 46  290/  8/  9 1027.3S
BALT KEY BRIDGE  0200   34     230/  6/  7 1026.0F
COVE POINT       0200   36     340/  7/ 11 1026.3R
LEWISETTA        0200   35 45  290/  2/  2 1026.3S
SOLOMONS ISLAND  0200      48                N/A
PINEY POINT      0200           40/  3/  4   N/A

$$




USA.gov is the U.S. government's official web portal to all federal, state and local government web resources and services.